Regional Weather Roundup
Issued by NWS Charleston, SC

Current Version | Previous Version | Graphics & Text | Print | Product List | Glossary On
Versions: 1 2 3 4 5 6 7 8 9 10 11 12 13 14 15 16 17 18 19 20 21 22 23 24 25 26 27 28 29 30 31 32 33 34 35 36 37 38 39 40 41 42 43 44 45 46 47 48 49 50
000 ASUS42 KCHS 272010 RWRCHS REGIONAL WEATHER ROUNDUP NATIONAL WEATHER SERVICE CHARLESTON SC 300 PM EST THU NOV 27 2014 NOTE: "FAIR" INDICATES FEW OR NO CLOUDS BELOW 12,000 FEET WITH NO SIGNIFICANT WEATHER AND/OR OBSTRUCTIONS TO VISIBILITY. NOT ALL STATIONS ARE QUALITY CONTROLLED BY THE NATIONAL WEATHER SERVICE. USE DATA WITH CAUTION...ESPECIALLY DEWPOINT OBSERVATIONS. SCZ027-030-031-034>040-042>050-272100- ...SOUTHEAST SOUTH CAROLINA... CITY SKY/WX TMP DP RH WIND PRES REMARKS N CHARLESTON MOSUNNY 56 29 35 NW18G24 30.12R WATERFRONT PRK N/A 55 N/A N/A W12G23 N/A MOUNT PLEASANT FAIR 55 32 41 NW18 30.11S JOHNS ISLAND CLEAR 55 36 47 NW14G23 30.12R PINOPOLIS N/A 54 34 47 NW17 30.02F MONCKS CORNER FAIR 55 37 50 NW7 30.13R SUMMERVILLE MOCLDY 55 32 41 W10G18 30.14R BEAUFORT MCAS MOSUNNY 56 30 37 NW14G25 30.15R BEAUFORT ARPT FAIR 55 34 44 NW18G26 30.14R HILTON HEAD IS SUNNY 55 32 41 W16G25 30.16R WALTERBORO PTCLDY 55 23 28 NW14G22 30.15R ALLENDALE FAIR 54 30 40 NW12G20 30.17R ...SOUTHERN MIDLANDS AND PEE DEE... CITY SKY/WX TMP DP RH WIND PRES REMARKS GEORGETOWN NOT AVBL KINGSTREE NOT AVBL ORANGEBURG PTSUNNY 54 28 36 NW12G26 30.14R BARNWELL FAIR 54 32 43 W13G22 30.18R AIKEN FAIR 54 30 40 W15G21 30.19R MANNING NOT AVBL COLUMBIA MOSUNNY 54 28 36 W16G25 30.14R SUMTER PTSUNNY 53 27 36 NW13 30.11R FLORENCE CLOUDY 53 31 42 NW12 30.09R MYRTLE BEACH PTSUNNY 55 34 44 NW14G23 30.07 N MYRTLE BEACH PTSUNNY 54 36 50 NW9G17 30.06R $$ GAZ063-065-086>088-099>101-113>116-118-119-134>141-150-272100- ...SOUTHEAST GEORGIA... CITY SKY/WX TMP DP RH WIND PRES REMARKS SAVANNAH ARPT MOSUNNY 58 28 32 NW17G26 30.17R HUNTER AAF SUNNY 56 29 35 NW21G29 30.14R FORT STEWART SUNNY 56 29 36 W17G30 30.17R STATESBORO NOT AVBL SYLVANIA PTCLDY 56 33 41 NW22G29 30.19R CLAXTON FAIR 55 5 13 W16G26 30.19R ...CSRA...CENTRAL AND FAR SOUTHEAST GEORGIA... CITY SKY/WX TMP DP RH WIND PRES REMARKS THOMSON SUNNY 54 37 52 W13G22 30.24S AUGUSTA-BUSH SUNNY 54 27 35 NW21G29 30.19R AUGUSTA-DANIEL SUNNY 53 29 39 NW17 30.19R SWAINSBORO FAIR 55 34 44 W14G25 30.21S VIDALIA SUNNY 54 32 43 NW14G24 30.20F HAZLEHURST FAIR 57 31 38 NW9G22 30.20F ALMA SUNNY 56 30 37 NW16 30.21S WAYCROSS SUNNY 61 35 38 NW14G23 30.21S JESUP FAIR 59 34 38 NW20G25 30.19S BAXLEY FAIR 57 32 38 NW12G21 30.20S BRUNSWICK SUNNY 59 28 31 W16G26 30.19S SAINT SIMONS SUNNY 57 31 37 NW14G24 30.18S $$ SCZ027-028-034-036>038-045-046-048>050-GAZ119-141-272100- ...LAKE AND SUPPLEMENTAL COASTAL OBSERVATIONS... STATION/POSITION TIME TEMP WIND PRES WAVE SWELL AIR SEA DIR/SP/G HT/PER HT/PER/DIR (UTC) (F) (DEG/KT/KT) (MB) (FT/S) (FT/S/D) UPR LAKE MARION NOT AVBL WINYAH BAY 1900 54 280/ 12 1018.0S LAKE MURRAY 1900 53 310/ 6/ 14 1019.6S ACE BASIN NERRS 1900 55 310/ 6 1020.0S FORT PULASKI 2000 54 310/ 21/ 26 1021.3R SAPELO ISLAND 1900 56 290/ 17 1021.0F $$ ANZ835-935-AMZ111-154-330-350-352-354-370-450-454-472-272100- ...C-MAN AND BUOY OBSERVATIONS... STATION/POSITION TIME TEMP WIND PRES WAVE SWELL AIR SEA DIR/SP/G HT/PER HT/PER/DIR (UTC) (F) (DEG/KT/KT) (MB) (FT/S) (FT/S/D) FOLLY BEACH CMAN 1900 55 310/ 13/ 22 1019.9F BUOY 41004 2000 56 73 300/ 21/ 27 1018.3R 7/ 7 2/15 BUOY 41008 2000 56 63 300/ 21/ 27 1021.1R 4/ 4 CAPERS NEARSHORE 1900 55 280/ 19/ 23 N/A FRIPP NEARSHORE NOT AVBL STATION/POSITION TIME TEMP WIND PRES WAVE SWELL AIR SEA DIR/SP/G HT/PER HT/PER/DIR (UTC) (F) (DEG/KT/KT) (MB) (FT/S) (FT/S/D) 5E ST. MARYS GA 2000 62 N/A 3/ 4 FRYING PAN BUOY 2000 55 71 290/ 25/ 31 1016.9R 7/ 7 2/170/ 9 BUOY 41025 2000 61 250/ 19/ 25 1012.3R 5/ 9 3/100/ 9 CAPE LOOKOUT NC 1900 54 260/ 20/ 23 1013.9R BUOY 41002 1937 70 73 260/ 23/ 29 1014.9F 8/ 7 2/140/15 BUOY 41010 2000 69 78 290/ 21/ 27 1019.3F 7/ 7 3/110/ 9 ST AUGUSTINE FL 2000 60 300/ 12/ 16 1022.5S $$

USA.gov is the U.S. government's official web portal to all federal, state and local government web resources and services.